Zurück zum Katalog

STARLINK-35077

AktivKommunikationSSO
NORAD 65529·PAYLOAD·🇺🇸 United States

Gestartet Sep 6, 2025 von Cape Canaveral Space Force Station

Loading…

Nächste Überflüge (nächste 24 Stunden)

TLE

AktuellSource: CelesTrak SupGP

Epoche: Sep 14, 2026, 22:48 UTC

1 65529C 25200K   26257.95048611 -.00053618  00000+0 -16647-2 0  2579
2 65529  97.2854 324.3581 0000943  87.7510  32.6349 15.33462269    13

Verfolge STARLINK-35077 in Echtzeit mit AllMySat

Download on the App Store